Location: DaltonSkyGazer Observatory
(42.4858°N, 73.1565°W)
Time: 07:29:04
(UTC-04:00)

Helios 1B - Visible Passes

Search period start: 31 July 2014 00:00
Search period end: 10 August 2014 00:00
Orbit: 626 x 630 km, 98.2° (Epoch: 30 July)

Date Brightness Start Highest point End Pass type
(mag) Time Alt. Az. Time Alt. Az. Time Alt. Az.
31 Jul 5.8 22:18:55 26° E 22:19:38 27° ENE 22:23:19 10° N visible
31 Jul 6.1 23:56:15 28° W 23:56:15 28° W 23:59:34 10° NW visible
01 Aug 5.1 22:38:58 42° E 22:39:17 42° ENE 22:43:24 10° N visible
02 Aug 6.8 00:16:19 17° W 00:16:19 17° W 00:18:41 10° NW visible
02 Aug 4.6 22:59:02 69° ENE 22:59:02 69° ENE 23:03:19 10° N visible
03 Aug 7.3 00:36:22 11° W 00:36:22 11° W 00:36:47 10° WNW visible
03 Aug 6.8 21:41:46 11° E 21:43:05 12° ENE 21:44:46 10° NE visible
03 Aug 4.8 23:19:06 67° WNW 23:19:06 67° WNW 23:23:06 10° NNW visible
04 Aug 6.3 22:01:50 18° ENE 22:02:37 19° ENE 22:05:37 10° NNE visible
04 Aug 5.6 23:39:10 40° WNW 23:39:10 40° WNW 23:42:42 10° NNW visible
05 Aug 5.7 22:21:53 28° ENE 22:22:12 28° ENE 22:25:56 10° N visible
05 Aug 6.4 23:59:14 25° WNW 23:59:14 25° WNW 00:02:06 10° NW visible
06 Aug 5.1 22:41:57 44° ENE 22:41:57 44° ENE 22:46:00 10° N visible
07 Aug 6.9 00:19:18 16° WNW 00:19:18 16° WNW 00:21:10 10° NW visible
07 Aug 4.8 23:02:01 65° NNE 23:02:01 65° NNE 23:05:54 10° N visible
08 Aug 6.7 21:44:45 12° ENE 21:45:37 13° ENE 21:47:29 10° NE visible
08 Aug 5.2 23:22:05 55° NW 23:22:05 55° NW 23:25:39 10° NNW visible
09 Aug 6.3 22:04:49 19° ENE 22:05:09 19° ENE 22:08:15 10° NNE visible
09 Aug 5.9 23:42:09 35° WNW 23:42:09 35° WNW 23:45:14 10° NNW visible
